Location: Berg
(47.2344°N, 9.5296°E)
Time: 18:56:25
(UTC+00:00)

AO-7 - Visible Passes

Search period start: 06 December 2021 00:00
Search period end: 16 December 2021 00:00
Orbit: 1439 x 1459 km, 101.9° (Epoch: 06 December)

Date Brightness Start Highest point End Pass type
(mag) Time Alt. Az. Time Alt. Az. Time Alt. Az.
06 Dec ? 01:48:56 10° NE 01:53:13 15° E 01:57:29 10° ESE visible
06 Dec ? 03:39:10 10° NNE 03:47:29 69° ESE 03:55:47 10° S visible
06 Dec ? 05:32:30 10° N 05:39:42 34° NW 05:46:54 10° WSW visible
06 Dec ? 16:39:33 10° WSW 16:43:57 15° W 16:48:24 10° NW visible
07 Dec ? 02:39:48 10° NE 02:47:04 32° E 02:54:18 10° SSE visible
07 Dec ? 04:32:07 10° NNE 04:40:20 67° WNW 04:48:33 10° SW visible
08 Dec ? 01:42:33 10° ENE 01:46:01 13° E 01:49:28 10° ESE visible
08 Dec ? 03:32:09 10° NNE 03:40:26 63° ESE 03:48:40 10° S visible
08 Dec ? 05:25:23 10° N 05:32:46 37° NW 05:40:08 10° WSW visible
08 Dec ? 16:31:44 10° SW 16:36:45 17° W 16:41:49 10° NW visible
09 Dec ? 02:32:54 10° NE 02:39:56 29° E 02:46:56 10° SSE visible
09 Dec ? 04:25:03 10° NNE 04:33:20 72° WNW 04:41:37 10° SSW visible
09 Dec ? 06:18:58 10° N 06:24:45 21° NW 06:30:32 10° W visible
10 Dec ? 01:36:30 10° ENE 01:38:48 11° E 01:41:04 10° E visible
10 Dec ? 03:25:08 10° NNE 03:33:21 58° ESE 03:41:32 10° S visible
10 Dec ? 05:18:17 10° N 05:25:49 40° NW 05:33:21 10° WSW visible
10 Dec ? 16:24:03 10° SW 16:29:34 19° W 16:35:08 10° NW visible
11 Dec ? 02:26:02 10° NE 02:32:48 27° E 02:39:31 10° SSE visible
11 Dec ? 04:17:59 10° NNE 04:26:19 78° WNW 04:34:39 10° SSW visible
11 Dec ? 06:11:49 10° N 06:17:52 23° NW 06:23:55 10° W visible
12 Dec ? 03:18:09 10° NNE 03:26:16 53° ESE 03:34:22 10° S visible
12 Dec ? 05:11:11 10° N 05:18:51 43° WNW 05:26:33 10° SW visible
12 Dec ? 16:16:27 10° SW 16:22:24 21° W 16:28:24 10° NW visible
13 Dec ? 02:19:12 10° NE 02:25:38 24° E 02:32:03 10° SE visible
13 Dec ? 04:10:56 10° NNE 04:19:18 84° WNW 04:27:39 10° SSW visible
13 Dec ? 06:04:40 10° N 06:10:58 25° NW 06:17:16 10° W visible
14 Dec ? 03:11:10 10° NNE 03:19:11 49° E 03:27:10 10° S visible
14 Dec ? 05:04:05 10° N 05:11:54 47° WNW 05:19:43 10° SW visible
14 Dec ? 16:08:55 10° SW 16:15:14 24° W 16:21:37 10° NW visible
15 Dec ? 02:12:24 10° NE 02:18:28 22° E 02:24:32 10° SE visible
15 Dec ? 04:03:53 10° NNE 04:12:16 90° ESE 04:20:39 10° SSW visible
15 Dec ? 05:57:32 10° N 06:04:04 27° NW 06:10:37 10° W visible
